Weather History for Benton Harbor, MI

Change the Weather History Date:

Friday, May 24, 2013

  Actual Average Record
Temperature  
Mean Temperature 42 °F -  
Max Temperature 50 °F 72 °F 88 °F (1981)
Min Temperature 37 °F 50 °F 34 °F (1948)
Degree Days  
Heating Degree Days 22    
Moisture  
Dew Point 36 °F    
Average Humidity 72    
Maximum Humidity 89    
Minimum Humidity 56    
Precipitation  
Precipitation 0.00 in - - ()
Sea Level Pressure  
Sea Level Pressure 30.36 in    
Wind  
Wind Speed 4 mph (NNW)    
Max Wind Speed 10 mph    
Max Gust Speed 18 mph    
Visibility 10 miles    
Events      
Averages and records for this station are not official NWS values.
T = Trace of Precipitation, MM = Missing Value Source: NWS Daily Summary

Daily Weather History Graph

Daily Weather History Graph

Search for Another Location

Airport:

Trip Planner

Search our weather history database for the weather conditions in past years. The results will help you decide how hot, cold, wet, or windy it might be!

Date:

Astronomy

May. 24, 2013 Rise Set
Actual Time 6:16 AM EDT 9:08 PM EDT
Civil Twilight 5:43 AM EDT 9:41 PM EDT
Nautical Twilight 5:02 AM EDT 10:23 PM EDT
Astronomical Twilight 4:13 AM EDT 11:12 PM EDT
Moon 8:49 PM EDT (5/24) 5:49 AM EDT (5/24)
Length of Visible Light 15h 57m
Length of Day
14h 51m
Full, 100% of the Moon is Illuminated
May 24
Full
May 25
Full
May 31
Last Quarter
Jun 8
New
Jun 16
First Quarter

Hourly Weather History & Observations

Time (EDT) Temp. Windchill Dew Point Humidity Pressure Visibility Wind Dir Wind Speed Gust Speed Precip Events Conditions
12:53 AM 44.1 °F 41.5 °F 39.9 °F 85% 30.25 in 10.0 mi Variable 4.6 mph - N/A   Clear
1:53 AM 43.0 °F 40.3 °F 37.0 °F 80% 30.27 in 10.0 mi Variable 4.6 mph - N/A   Clear
2:53 AM 42.1 °F - 35.1 °F 76% 30.28 in 10.0 mi Calm Calm - N/A   Clear
3:53 AM 41.0 °F 38.0 °F 35.1 °F 79% 30.29 in 10.0 mi ENE 4.6 mph - N/A   Clear
4:53 AM 37.9 °F 35.5 °F 34.0 °F 86% 30.30 in 10.0 mi ENE 3.5 mph - N/A   Clear
5:53 AM 39.0 °F 35.7 °F 33.1 °F 79% 30.31 in 10.0 mi Variable 4.6 mph - N/A   Clear
6:53 AM 39.9 °F 37.8 °F 34.0 °F 79% 30.34 in 10.0 mi NE 3.5 mph - N/A   Clear
7:53 AM 43.0 °F 41.3 °F 36.0 °F 76% 30.37 in 10.0 mi Variable 3.5 mph - N/A   Clear
8:53 AM 46.0 °F 44.8 °F 36.0 °F 68% 30.38 in 10.0 mi Variable 3.5 mph - N/A   Clear
9:53 AM 48.9 °F - 35.1 °F 59% 30.40 in 10.0 mi Variable 4.6 mph - N/A   Clear
10:53 AM 48.9 °F - 37.0 °F 64% 30.41 in 10.0 mi WNW 9.2 mph - N/A   Clear
11:53 AM 48.9 °F - 39.0 °F 69% 30.43 in 10.0 mi Variable 5.8 mph 16.1 mph N/A   Clear
12:53 PM 48.0 °F - 39.0 °F 71% 30.44 in 10.0 mi NW 9.2 mph 17.3 mph N/A   Clear
1:53 PM 48.9 °F - 39.0 °F 69% 30.43 in 10.0 mi NW 8.1 mph - N/A   Clear
2:53 PM 48.9 °F - 34.0 °F 56% 30.44 in 10.0 mi NNW 8.1 mph 18.4 mph N/A   Clear
3:53 PM 48.0 °F - 34.0 °F 58% 30.42 in 10.0 mi NW 10.4 mph 16.1 mph N/A   Clear
4:53 PM 48.9 °F - 35.1 °F 59% 30.41 in 10.0 mi Variable 6.9 mph - N/A   Clear
5:53 PM 48.9 °F - 35.1 °F 59% 30.38 in 10.0 mi NNW 6.9 mph - N/A   Clear
6:53 PM 48.0 °F - 35.1 °F 61% 30.35 in 10.0 mi Variable 3.5 mph - N/A   Clear
7:53 PM 46.9 °F - 35.1 °F 63% 30.33 in 10.0 mi Calm Calm - N/A   Clear
8:53 PM 44.1 °F - 37.0 °F 76% 30.34 in 10.0 mi Calm Calm - N/A   Clear
9:53 PM 42.1 °F 39.2 °F 37.0 °F 82% 30.37 in 10.0 mi WNW 4.6 mph - N/A   Clear
10:53 PM 42.1 °F - 37.0 °F 82% 30.38 in 10.0 mi Calm Calm - N/A   Clear
11:53 PM 39.0 °F - 36.0 °F 89% 30.39 in 10.0 mi Calm Calm - N/A   Clear